Time,TemperatureF,DewpointF,PressureIn,WindDirection,WindDirectionDegrees,WindSpeedMPH,WindSpeedGustMPH,Humidity,HourlyPrecipIn,Conditions,Clouds,dailyrainin,SoftwareType,DateUTC
2013-05-12 00:01:00,56.2,46.2,29.88,WSW,257,6.9,7.5,69,0.00,,OVC038,0.00,VWS V14.00,2013-05-12 04:01:00,
2013-05-12 00:02:00,56.2,46.2,29.88,South,186,3.9,7.5,69,0.00,,OVC044,0.00,VWS V14.00,2013-05-12 04:02:00,
2013-05-12 00:07:00,56.1,46.4,29.88,West,261,4.4,7.5,70,0.00,,OVC044,0.00,VWS V14.00,2013-05-12 04:07:00,
2013-05-12 00:12:00,56.1,46.0,29.88,WNW,285,6.9,7.5,69,0.00,,OVC044,0.00,VWS V14.00,2013-05-12 04:12:00,
2013-05-12 00:17:00,55.9,46.2,29.88,West,280,9.6,10.5,70,0.00,,OVC044,0.00,VWS V14.00,2013-05-12 04:17:00,
2013-05-12 00:22:00,55.5,45.1,29.88,West,270,14.5,15.8,68,0.00,,OVC044,0.00,VWS V14.00,2013-05-12 04:22:00,
2013-05-12 00:27:00,55.1,44.8,29.88,NW,318,11.6,12.6,68,0.00,,OVC044,0.00,VWS V14.00,2013-05-12 04:27:00,
2013-05-12 00:32:00,55.1,44.4,29.88,West,259,5.9,7.5,67,0.00,,OVC044,0.00,VWS V14.00,2013-05-12 04:32:00,
2013-05-12 00:37:00,55.1,44.4,29.88,WSW,242,5.9,7.0,67,0.00,,OVC044,0.00,VWS V14.00,2013-05-12 04:37:00,
2013-05-12 00:42:00,55.0,44.2,29.88,WNW,293,3.9,6.4,67,0.00,,OVC044,0.00,VWS V14.00,2013-05-12 04:42:00,
2013-05-12 00:47:00,54.8,43.6,29.91,WSW,248,9.1,11.5,66,0.00,,OVC044,0.00,VWS V14.00,2013-05-12 04:47:00,
2013-05-12 00:53:00,54.2,43.5,29.91,West,262,9.1,9.9,67,0.00,,OVC044,0.00,VWS V14.00,2013-05-12 04:53:00,
2013-05-12 00:58:00,53.8,42.4,29.91,West,279,11.6,12.6,65,0.00,,OVC044,0.00,VWS V14.00,2013-05-12 04:58:00,
2013-05-12 01:03:00,53.7,41.8,29.91,WSW,252,8.9,9.7,64,0.00,,FEW046,0.00,VWS V14.00,2013-05-12 05:03:00,
2013-05-12 01:08:00,53.5,40.4,29.91,West,274,8.9,10.5,61,0.00,,FEW046,0.00,VWS V14.00,2013-05-12 05:08:00,
2013-05-12 01:13:00,53.1,40.4,29.91,WSW,247,5.9,9.9,62,0.00,,FEW046,0.00,VWS V14.00,2013-05-12 05:13:00,
2013-05-12 01:18:00,52.5,40.3,29.88,West,275,4.4,8.1,63,0.00,,FEW046,0.00,VWS V14.00,2013-05-12 05:18:00,
2013-05-12 01:23:00,52.2,40.8,29.88,West,264,4.4,9.7,65,0.00,,FEW046,0.00,VWS V14.00,2013-05-12 05:23:00,
2013-05-12 01:28:00,51.8,40.8,29.88,WSW,250,0.0,4.8,66,0.00,,FEW046,0.00,VWS V14.00,2013-05-12 05:28:00,
2013-05-12 01:33:00,51.8,40.8,29.88,WSW,256,3.9,4.3,66,0.00,,OVC055,0.00,VWS V14.00,2013-05-12 05:33:00,
2013-05-12 01:38:00,51.6,40.6,29.88,WSW,249,0.0,4.3,66,0.00,,OVC055,0.00,VWS V14.00,2013-05-12 05:38:00,
2013-05-12 01:43:00,51.1,40.1,29.88,West,272,0.0,2.7,66,0.00,,OVC055,0.00,VWS V14.00,2013-05-12 05:43:00,
2013-05-12 01:49:00,50.7,39.0,29.88,NNW,334,4.4,6.4,64,0.00,,OVC055,0.00,VWS V14.00,2013-05-12 05:49:00,
2013-05-12 01:54:00,50.5,38.8,29.88,NW,321,5.9,7.5,64,0.00,,OVC055,0.00,VWS V14.00,2013-05-12 05:54:00,
2013-05-12 01:59:00,50.3,39.0,29.88,NNW,328,4.4,4.8,65,0.00,,OVC055,0.00,VWS V14.00,2013-05-12 05:59:00,
2013-05-12 02:04:00,50.3,39.0,29.88,NNW,341,5.4,7.5,65,0.00,,OVC060,0.00,VWS V14.00,2013-05-12 06:04:00,
2013-05-12 02:09:00,50.7,39.4,29.88,NE,51,3.0,3.2,65,0.00,,OVC060,0.00,VWS V14.00,2013-05-12 06:09:00,
2013-05-12 02:14:00,50.7,39.8,29.88,ESE,103,3.4,4.8,66,0.00,,OVC060,0.00,VWS V14.00,2013-05-12 06:14:00,
2013-05-12 02:19:00,50.7,40.1,29.88,SSE,156,5.4,5.9,67,0.00,,OVC060,0.00,VWS V14.00,2013-05-12 06:19:00,
2013-05-12 02:24:00,50.9,40.7,29.88,SSE,154,4.4,4.8,68,0.00,,OVC060,0.00,VWS V14.00,2013-05-12 06:24:00,
2013-05-12 02:29:00,51.1,40.9,29.88,ESE,116,4.4,4.8,68,0.00,,OVC060,0.00,VWS V14.00,2013-05-12 06:29:00,
2013-05-12 02:34:00,51.1,40.9,29.88,SE,131,3.9,4.8,68,0.00,,OVC065,0.00,VWS V14.00,2013-05-12 06:34:00,
2013-05-12 02:39:00,51.1,41.6,29.88,SSE,158,3.9,4.3,70,0.00,,OVC065,0.00,VWS V14.00,2013-05-12 06:39:00,
2013-05-12 02:44:00,51.2,41.8,29.88,SSW,210,3.4,3.8,70,0.00,,OVC065,0.00,VWS V14.00,2013-05-12 06:44:00,
2013-05-12 02:49:00,51.2,42.2,29.88,West,280,0.0,0.0,71,0.00,,OVC070,0.00,VWS V14.00,2013-05-12 06:49:00,
2013-05-12 02:54:00,51.4,42.3,29.88,SSE,155,3.9,4.8,71,0.00,,OVC070,0.00,VWS V14.00,2013-05-12 06:54:00,
2013-05-12 03:00:00,51.4,42.3,29.88,SE,145,3.0,3.8,71,0.00,,OVC070,0.00,VWS V14.00,2013-05-12 07:00:00,
2013-05-12 03:05:00,51.6,42.5,29.88,SE,125,0.0,3.2,71,0.00,,OVC070,0.00,VWS V14.00,2013-05-12 07:05:00,
2013-05-12 03:10:00,51.4,43.1,29.88,SE,126,0.0,0.0,73,0.00,,OVC070,0.00,VWS V14.00,2013-05-12 07:10:00,
2013-05-12 03:15:00,51.4,43.1,29.88,SSW,211,0.0,0.0,73,0.00,,OVC070,0.00,VWS V14.00,2013-05-12 07:15:00,
2013-05-12 03:20:00,51.6,42.9,29.88,SSW,197,0.0,0.0,72,0.00,,OVC070,0.00,VWS V14.00,2013-05-12 07:20:00,
2013-05-12 03:25:00,51.6,42.9,29.88,SW,231,0.0,0.0,72,0.00,,OVC070,0.00,VWS V14.00,2013-05-12 07:25:00,
2013-05-12 03:30:00,51.6,42.9,29.88,SW,217,0.0,0.0,72,0.00,,OVC070,0.00,VWS V14.00,2013-05-12 07:30:00,
2013-05-12 03:35:00,51.6,42.9,29.88,SW,215,0.0,0.0,72,0.00,,OVC070,0.00,VWS V14.00,2013-05-12 07:35:00,
2013-05-12 03:40:00,51.6,43.2,29.88,WSW,250,0.0,0.0,73,0.00,,OVC070,0.00,VWS V14.00,2013-05-12 07:40:00,
2013-05-12 03:45:00,51.6,43.6,29.88,NW,317,3.4,6.4,74,0.00,,OVC070,0.00,VWS V14.00,2013-05-12 07:45:00,
2013-05-12 03:50:00,51.6,43.6,29.88,SW,236,0.0,3.2,74,0.00,,OVC070,0.00,VWS V14.00,2013-05-12 07:50:00,
2013-05-12 03:55:00,51.6,43.2,29.88,SSW,192,6.9,7.5,73,0.00,,OVC070,0.00,VWS V14.00,2013-05-12 07:55:00,
2013-05-12 04:01:00,51.6,43.2,29.88,SSW,194,5.9,6.4,73,0.00,,OVC070,0.00,VWS V14.00,2013-05-12 08:01:00,
2013-05-12 04:06:00,51.6,43.6,29.85,WNW,302,5.9,7.5,74,0.00,,-RA,0.00,VWS V14.00,2013-05-12 08:06:00,
2013-05-12 04:11:00,51.4,43.8,29.85,WNW,291,3.0,5.4,75,0.00,,-RA,0.00,VWS V14.00,2013-05-12 08:11:00,
2013-05-12 04:16:00,51.4,44.1,29.85,WSW,251,2.5,4.8,76,0.00,, +RA,0.00,VWS V14.00,2013-05-12 08:16:00,
2013-05-12 04:21:00,51.4,44.1,29.85,South,187,0.0,0.0,76,0.00,, +RA,0.00,VWS V14.00,2013-05-12 08:21:00,
2013-05-12 04:26:00,51.4,44.1,29.85,SW,233,0.0,3.2,76,0.00,, +RA,0.00,VWS V14.00,2013-05-12 08:26:00,
2013-05-12 04:31:00,51.4,44.1,29.85,SW,234,0.0,3.2,76,0.00,,-RA,0.00,VWS V14.00,2013-05-12 08:31:00,
2013-05-12 04:36:00,51.6,44.3,29.85,SW,225,4.4,7.0,76,0.00,,-RA,0.00,VWS V14.00,2013-05-12 08:36:00,
2013-05-12 04:41:00,51.6,44.0,29.85,WSW,253,0.0,2.7,75,0.00,,-RA,0.00,VWS V14.00,2013-05-12 08:41:00,
2013-05-12 04:47:00,51.4,43.8,29.85,SW,235,3.9,6.4,75,0.00,,-RA,0.00,VWS V14.00,2013-05-12 08:47:00,
2013-05-12 04:52:00,51.2,44.0,29.85,SW,232,4.4,6.4,76,0.00,,-RA,0.00,VWS V14.00,2013-05-12 08:52:00,
2013-05-12 04:57:00,50.7,44.8,29.85,NNW,331,10.6,12.6,80,0.00,,-RA,0.00,VWS V14.00,2013-05-12 08:57:00,
2013-05-12 05:02:00,49.9,43.7,29.88,West,280,14.0,18.5,79,0.00,,OVC025,0.00,VWS V14.00,2013-05-12 09:02:00,
2013-05-12 05:07:00,49.0,41.5,29.88,NNW,338,19.2,25.8,75,0.00,,OVC025,0.00,VWS V14.00,2013-05-12 09:07:00,
2013-05-12 05:12:00,48.1,39.9,29.88,NNW,328,17.0,20.9,73,0.00,,OVC025,0.00,VWS V14.00,2013-05-12 09:12:00,
2013-05-12 05:17:00,47.7,39.5,29.88,NW,321,14.0,18.5,73,0.00,,OVC025,0.00,VWS V14.00,2013-05-12 09:17:00,
2013-05-12 05:22:00,47.3,39.5,29.88,NW,317,11.1,12.6,74,0.00,,OVC025,0.00,VWS V14.00,2013-05-12 09:22:00,
2013-05-12 05:27:00,47.2,39.0,29.88,NW,321,12.5,18.5,73,0.00,,OVC025,0.00,VWS V14.00,2013-05-12 09:27:00,
2013-05-12 05:32:00,46.6,38.8,29.88,WNW,302,18.5,20.9,74,0.00,,OVC034,0.00,VWS V14.00,2013-05-12 09:32:00,
2013-05-12 05:37:00,45.9,37.0,29.88,NW,320,8.4,13.2,71,0.00,,OVC034,0.00,VWS V14.00,2013-05-12 09:37:00,
2013-05-12 05:43:00,45.7,36.8,29.88,NW,315,5.9,9.1,71,0.00,,OVC034,0.00,VWS V14.00,2013-05-12 09:43:00,
2013-05-12 05:48:00,45.7,36.8,29.88,WNW,297,5.9,9.1,71,0.00,,OVC034,0.00,VWS V14.00,2013-05-12 09:48:00,
2013-05-12 05:53:00,45.9,37.4,29.88,WNW,290,3.9,5.9,72,0.00,,OVC034,0.00,VWS V14.00,2013-05-12 09:53:00,
2013-05-12 05:58:00,46.0,37.2,29.88,SSW,213,3.4,3.8,71,0.00,,OVC034,0.00,VWS V14.00,2013-05-12 09:58:00,
2013-05-12 06:03:00,46.0,37.2,29.88,SSW,200,3.0,3.2,71,0.00,,OVC049,0.00,VWS V14.00,2013-05-12 10:03:00,
2013-05-12 06:08:00,45.9,37.0,29.88,SE,134,0.0,3.2,71,0.00,,OVC049,0.00,VWS V14.00,2013-05-12 10:08:00,
2013-05-12 06:13:00,45.7,36.8,29.88,East,82,4.4,4.8,71,0.00,,OVC049,0.00,VWS V14.00,2013-05-12 10:13:00,
2013-05-12 06:18:00,45.5,35.6,29.88,NW,315,3.9,12.1,68,0.00,,OVC049,0.00,VWS V14.00,2013-05-12 10:18:00,
2013-05-12 06:23:00,45.5,34.4,29.88,SW,216,3.4,5.9,65,0.00,,OVC049,0.00,VWS V14.00,2013-05-12 10:23:00,
2013-05-12 06:28:00,44.9,33.5,29.88,SW,232,4.4,5.9,64,0.00,,OVC049,0.00,VWS V14.00,2013-05-12 10:28:00,
2013-05-12 06:33:00,45.1,30.8,29.91,WSW,255,3.0,3.8,57,0.00,,OVC049,0.00,VWS V14.00,2013-05-12 10:33:00,
2013-05-12 06:38:00,44.6,31.6,29.91,NNW,344,4.4,5.4,60,0.00,,OVC049,0.00,VWS V14.00,2013-05-12 10:38:00,
2013-05-12 06:44:00,44.4,31.8,29.91,WNW,286,3.4,5.9,61,0.00,,OVC049,0.00,VWS V14.00,2013-05-12 10:44:00,
2013-05-12 06:49:00,43.8,31.3,29.91,WNW,299,6.9,9.1,61,0.00,,OVC049,0.00,VWS V14.00,2013-05-12 10:49:00,
2013-05-12 06:54:00,43.5,31.7,29.91,NW,317,11.1,12.1,63,0.00,,OVC049,0.00,VWS V14.00,2013-05-12 10:54:00,
2013-05-12 06:59:00,43.6,31.1,29.91,NW,318,8.9,11.5,61,0.00,,OVC049,0.00,VWS V14.00,2013-05-12 10:59:00,
2013-05-12 07:04:00,43.6,31.1,29.91,West,280,8.4,9.7,61,0.00,,OVC055,0.00,VWS V14.00,2013-05-12 11:04:00,
2013-05-12 07:09:00,43.6,31.5,29.91,WNW,284,8.9,15.3,62,0.00,,OVC055,0.00,VWS V14.00,2013-05-12 11:09:00,
2013-05-12 07:14:00,43.8,31.3,29.91,WNW,299,6.9,12.1,61,0.00,,OVC055,0.00,VWS V14.00,2013-05-12 11:14:00,
2013-05-12 07:19:00,43.6,31.9,29.91,WNW,295,6.9,9.1,63,0.00,,OVC055,0.00,VWS V14.00,2013-05-12 11:19:00,
2013-05-12 07:24:00,43.6,31.5,29.91,NW,311,9.6,12.6,62,0.00,,OVC055,0.00,VWS V14.00,2013-05-12 11:24:00,
2013-05-12 07:29:00,43.6,31.9,29.91,North,350,14.5,15.8,63,0.00,,OVC055,0.00,VWS V14.00,2013-05-12 11:29:00,
2013-05-12 07:35:00,43.8,30.4,29.91,WNW,283,17.0,18.5,59,0.00,,OVC055,0.00,VWS V14.00,2013-05-12 11:35:00,
2013-05-12 07:40:00,43.6,31.5,29.91,WNW,285,11.6,12.6,62,0.00,,OVC055,0.00,VWS V14.00,2013-05-12 11:40:00,
2013-05-12 07:45:00,43.8,30.9,29.91,WNW,301,8.9,14.2,60,0.00,,OVC055,0.00,VWS V14.00,2013-05-12 11:45:00,
2013-05-12 07:50:00,43.8,30.9,29.91,WNW,283,6.4,9.9,60,0.00,,OVC055,0.00,VWS V14.00,2013-05-12 11:50:00,
2013-05-12 07:55:00,43.8,30.9,29.91,NW,318,13.0,14.2,60,0.00,,OVC055,0.00,VWS V14.00,2013-05-12 11:55:00,
2013-05-12 08:00:00,43.8,30.0,29.91,NW,317,9.1,14.8,58,0.00,,OVC055,0.00,VWS V14.00,2013-05-12 12:00:00,
2013-05-12 08:05:00,43.8,29.6,29.94,WNW,292,3.4,10.5,57,0.00,,OVC055,0.00,VWS V14.00,2013-05-12 12:05:00,
2013-05-12 08:10:00,44.0,31.0,29.94,West,273,10.1,11.0,60,0.00,,OVC055,0.00,VWS V14.00,2013-05-12 12:10:00,
2013-05-12 08:15:00,44.0,29.3,29.94,West,277,12.1,14.8,56,0.00,,OVC055,0.00,VWS V14.00,2013-05-12 12:15:00,
2013-05-12 08:21:00,44.4,30.5,29.94,NW,304,9.6,15.3,58,0.00,,OVC055,0.00,VWS V14.00,2013-05-12 12:21:00,
2013-05-12 08:26:00,44.4,30.5,29.94,NW,321,8.9,9.7,58,0.00,,OVC055,0.00,VWS V14.00,2013-05-12 12:26:00,
2013-05-12 08:31:00,44.6,30.7,29.94,NW,309,3.0,6.4,58,0.00,,OVC055,0.00,VWS V14.00,2013-05-12 12:31:00,
2013-05-12 08:36:00,44.9,31.1,29.94,NNW,339,8.4,12.6,58,0.00,,OVC055,0.00,VWS V14.00,2013-05-12 12:36:00,
2013-05-12 08:41:00,44.9,29.3,29.94,NW,304,8.9,10.5,54,0.00,,OVC055,0.00,VWS V14.00,2013-05-12 12:41:00,
2013-05-12 08:46:00,45.3,30.5,29.94,WNW,297,8.9,9.7,56,0.00,,OVC055,0.00,VWS V14.00,2013-05-12 12:46:00,
2013-05-12 08:51:00,44.9,27.9,29.94,NW,321,11.1,15.3,51,0.00,,OVC055,0.00,VWS V14.00,2013-05-12 12:51:00,
2013-05-12 08:56:00,45.1,28.1,29.94,West,272,6.4,12.6,51,0.00,,OVC055,0.00,VWS V14.00,2013-05-12 12:56:00,
2013-05-12 09:01:00,45.5,28.4,29.94,WNW,293,6.4,18.0,51,0.00,,OVC050,0.00,VWS V14.00,2013-05-12 13:01:00,
2013-05-12 09:06:00,45.7,28.1,29.94,NW,311,13.0,15.3,50,0.00,,OVC050,0.00,VWS V14.00,2013-05-12 13:06:00,
2013-05-12 09:11:00,45.9,27.8,29.94,WSW,257,9.1,15.8,49,0.00,,OVC050,0.00,VWS V14.00,2013-05-12 13:11:00,
2013-05-12 09:17:00,46.2,29.1,29.94,NW,315,14.5,20.1,51,0.00,,OVC050,0.00,VWS V14.00,2013-05-12 13:17:00,
2013-05-12 09:22:00,46.0,27.5,29.94,NW,323,9.6,14.2,48,0.00,,OVC050,0.00,VWS V14.00,2013-05-12 13:22:00,
2013-05-12 09:27:00,46.2,27.6,29.94,WNW,301,14.0,18.5,48,0.00,,OVC050,0.00,VWS V14.00,2013-05-12 13:27:00,
2013-05-12 09:32:00,46.6,28.0,29.94,NW,326,8.4,12.1,48,0.00,,OVC050,0.00,VWS V14.00,2013-05-12 13:32:00,
2013-05-12 09:37:00,46.8,28.1,29.94,WNW,302,13.5,16.9,48,0.00,,OVC050,0.00,VWS V14.00,2013-05-12 13:37:00,
2013-05-12 09:42:00,46.2,25.0,29.94,NNW,343,11.6,18.0,43,0.00,,OVC050,0.00,VWS V14.00,2013-05-12 13:42:00,
2013-05-12 09:47:00,47.0,27.8,29.94,WNW,285,9.1,12.1,47,0.00,,OVC050,0.00,VWS V14.00,2013-05-12 13:47:00,
2013-05-12 09:52:00,46.6,27.5,29.94,NNW,341,14.5,18.5,47,0.00,,OVC050,0.00,VWS V14.00,2013-05-12 13:52:00,
2013-05-12 09:57:00,46.6,27.0,29.94,NW,312,9.6,18.5,46,0.00,,OVC050,0.00,VWS V14.00,2013-05-12 13:57:00,
2013-05-12 10:02:00,47.2,28.0,29.94,NW,325,14.0,15.8,47,0.00,,BKN050,0.00,VWS V14.00,2013-05-12 14:02:00,
2013-05-12 10:07:00,47.3,28.1,29.94,WNW,290,3.4,5.9,47,0.00,,BKN050,0.00,VWS V14.00,2013-05-12 14:07:00,
2013-05-12 10:13:00,47.3,28.1,29.94,West,271,6.4,9.1,47,0.00,,BKN050,0.00,VWS V14.00,2013-05-12 14:13:00,
2013-05-12 10:18:00,47.2,28.0,29.94,NW,316,15.0,19.1,47,0.00,,BKN050,0.00,VWS V14.00,2013-05-12 14:18:00,
2013-05-12 10:23:00,47.9,29.2,29.94,NW,316,14.5,15.8,48,0.00,,BKN050,0.00,VWS V14.00,2013-05-12 14:23:00,
2013-05-12 10:28:00,47.7,29.0,29.94,SW,226,6.9,9.9,48,0.00,,BKN050,0.00,VWS V14.00,2013-05-12 14:28:00,
2013-05-12 10:33:00,47.5,27.8,29.94,NW,317,11.6,15.3,46,0.00,,BKN050,0.00,VWS V14.00,2013-05-12 14:33:00,
2013-05-12 10:38:00,48.1,28.8,29.94,WNW,294,18.0,21.5,47,0.00,,BKN050,0.00,VWS V14.00,2013-05-12 14:38:00,
2013-05-12 10:43:00,48.7,29.9,29.94,NW,320,15.0,16.4,48,0.00,,BKN050,0.00,VWS V14.00,2013-05-12 14:43:00,
2013-05-12 10:48:00,47.5,28.8,29.94,NW,310,14.5,15.8,48,0.00,,BKN050,0.00,VWS V14.00,2013-05-12 14:48:00,
2013-05-12 10:54:00,47.5,28.8,29.94,WSW,239,6.4,10.5,48,0.00,,BKN050,0.00,VWS V14.00,2013-05-12 14:54:00,
2013-05-12 10:59:00,47.9,29.2,29.94,WNW,291,11.6,14.2,48,0.00,,BKN050,0.00,VWS V14.00,2013-05-12 14:59:00,
2013-05-12 11:04:00,49.0,30.2,29.94,WNW,300,13.5,14.8,48,0.00,,BKN050,0.00,VWS V14.00,2013-05-12 15:04:00,
2013-05-12 11:09:00,48.5,29.7,29.94,West,281,8.9,10.5,48,0.00,,BKN050,0.00,VWS V14.00,2013-05-12 15:09:00,
2013-05-12 11:14:00,49.2,28.2,29.94,WNW,283,11.1,15.3,44,0.00,,BKN050,0.00,VWS V14.00,2013-05-12 15:14:00,
2013-05-12 11:19:00,48.5,27.6,29.94,West,262,14.5,15.8,44,0.00,,BKN050,0.00,VWS V14.00,2013-05-12 15:19:00,
2013-05-12 11:24:00,49.2,29.3,29.94,West,271,9.6,13.7,46,0.00,,BKN050,0.00,VWS V14.00,2013-05-12 15:24:00,
2013-05-12 11:29:00,48.8,28.5,29.94,NNW,330,4.4,7.0,45,0.00,,BKN050,0.00,VWS V14.00,2013-05-12 15:29:00,
2013-05-12 11:34:00,49.0,27.5,29.94,WSW,252,14.5,16.4,43,0.00,,BKN050,0.00,VWS V14.00,2013-05-12 15:34:00,
2013-05-12 11:39:00,49.6,28.6,29.94,WNW,282,8.4,12.6,44,0.00,,BKN050,0.00,VWS V14.00,2013-05-12 15:39:00,
2013-05-12 11:44:00,50.1,29.1,29.94,WNW,288,14.0,15.3,44,0.00,,BKN050,0.00,VWS V14.00,2013-05-12 15:44:00,
2013-05-12 11:49:00,49.9,27.8,29.94,WSW,248,12.1,13.2,42,0.00,,BKN050,0.00,VWS V14.00,2013-05-12 15:49:00,
2013-05-12 11:55:00,50.1,28.0,29.94,WSW,256,12.1,13.2,42,0.00,,BKN050,0.00,VWS V14.00,2013-05-12 15:55:00,
2013-05-12 12:00:00,50.9,29.8,29.94,NW,306,9.1,12.6,44,0.00,,BKN050,0.00,VWS V14.00,2013-05-12 16:00:00,
2013-05-12 12:05:00,50.7,28.5,29.94,NW,307,9.1,20.9,42,0.00,,BKN049,0.00,VWS V14.00,2013-05-12 16:05:00,
2013-05-12 12:10:00,50.3,28.1,29.94,NNW,332,14.0,15.8,42,0.00,,BKN049,0.00,VWS V14.00,2013-05-12 16:10:00,
2013-05-12 12:15:00,49.9,27.8,29.94,NW,307,11.6,15.3,42,0.00,,BKN049,0.00,VWS V14.00,2013-05-12 16:15:00,
2013-05-12 12:20:00,51.4,29.7,29.94,West,271,7.9,15.8,43,0.00,,BKN049,0.00,VWS V14.00,2013-05-12 16:20:00,
2013-05-12 12:25:00,51.1,27.6,29.94,West,277,4.4,10.5,40,0.00,,BKN049,0.00,VWS V14.00,2013-05-12 16:25:00,
2013-05-12 12:30:00,51.6,28.7,29.94,WSW,255,3.4,10.5,41,0.00,,BKN049,0.00,VWS V14.00,2013-05-12 16:30:00,
2013-05-12 12:35:00,52.2,30.4,29.94,NW,326,14.5,18.5,43,0.00,,BKN049,0.00,VWS V14.00,2013-05-12 16:35:00,
2013-05-12 12:40:00,52.3,31.1,29.94,WNW,294,6.4,12.6,44,0.00,,BKN049,0.00,VWS V14.00,2013-05-12 16:40:00,
2013-05-12 12:45:00,52.3,30.5,29.94,West,281,17.0,20.4,43,0.00,,BKN049,0.00,VWS V14.00,2013-05-12 16:45:00,
2013-05-12 12:50:00,52.3,30.0,29.94,West,259,9.1,9.9,42,0.00,,BKN049,0.00,VWS V14.00,2013-05-12 16:50:00,
2013-05-12 12:55:00,51.8,30.6,29.94,West,271,11.6,16.9,44,0.00,,BKN049,0.00,VWS V14.00,2013-05-12 16:55:00,
2013-05-12 13:00:00,51.4,28.5,29.94,NNW,328,9.6,14.8,41,0.00,,BKN049,0.00,VWS V14.00,2013-05-12 17:00:00,
2013-05-12 13:05:00,52.2,29.8,29.97,WNW,303,14.5,18.5,42,0.00,,OVC047,0.00,VWS V14.00,2013-05-12 17:05:00,
2013-05-12 13:10:00,52.7,29.1,29.97,SSW,194,3.0,7.0,40,0.00,,OVC047,0.00,VWS V14.00,2013-05-12 17:10:00,
2013-05-12 13:15:00,52.7,29.1,29.97,West,268,11.1,15.3,40,0.00,,OVC047,0.00,VWS V14.00,2013-05-12 17:15:00,
2013-05-12 13:21:00,51.6,27.5,29.97,West,275,14.0,18.5,39,0.00,,OVC047,0.00,VWS V14.00,2013-05-12 17:21:00,
2013-05-12 13:26:00,51.6,28.7,29.97,West,280,18.0,20.1,41,0.00,,OVC047,0.00,VWS V14.00,2013-05-12 17:26:00,
2013-05-12 13:31:00,52.5,30.1,29.97,WNW,294,17.0,19.6,42,0.00,,OVC047,0.00,VWS V14.00,2013-05-12 17:31:00,
2013-05-12 13:36:00,52.2,29.8,29.97,WNW,296,9.6,12.1,42,0.00,,OVC047,0.00,VWS V14.00,2013-05-12 17:36:00,
2013-05-12 13:41:00,52.2,29.2,29.97,SW,214,6.9,9.1,41,0.00,,OVC047,0.00,VWS V14.00,2013-05-12 17:41:00,
2013-05-12 13:46:00,51.8,28.9,29.97,WNW,290,19.7,21.5,41,0.00,,OVC047,0.00,VWS V14.00,2013-05-12 17:46:00,
2013-05-12 13:51:00,52.2,29.2,29.97,WSW,240,8.4,12.1,41,0.00,,OVC047,0.00,VWS V14.00,2013-05-12 17:51:00,
2013-05-12 13:56:00,52.7,29.1,29.97,WNW,302,11.1,12.6,40,0.00,,OVC047,0.00,VWS V14.00,2013-05-12 17:56:00,
2013-05-12 14:01:00,52.7,28.5,29.97,West,275,15.0,16.4,39,0.00,,OVC049,0.00,VWS V14.00,2013-05-12 18:01:00,
2013-05-12 14:06:00,52.2,28.6,29.97,NW,305,15.5,19.6,40,0.00,,OVC049,0.00,VWS V14.00,2013-05-12 18:06:00,
2013-05-12 14:12:00,52.7,29.7,29.97,WSW,253,11.6,20.4,41,0.00,,OVC049,0.00,VWS V14.00,2013-05-12 18:12:00,
2013-05-12 14:17:00,53.8,30.1,29.97,West,268,8.4,9.7,40,0.00,,OVC049,0.00,VWS V14.00,2013-05-12 18:17:00,
2013-05-12 14:22:00,54.0,30.3,29.97,West,263,9.6,15.8,40,0.00,,OVC049,0.00,VWS V14.00,2013-05-12 18:22:00,
2013-05-12 14:27:00,54.2,29.2,29.97,SW,236,12.1,13.2,38,0.00,,OVC049,0.00,VWS V14.00,2013-05-12 18:27:00,
2013-05-12 14:32:00,54.6,30.8,29.97,West,259,14.0,15.3,40,0.00,,OVC049,0.00,VWS V14.00,2013-05-12 18:32:00,
2013-05-12 14:37:00,55.1,30.0,29.97,SSW,197,6.4,12.6,38,0.00,,OVC049,0.00,VWS V14.00,2013-05-12 18:37:00,
2013-05-12 14:42:00,55.3,30.2,29.97,West,276,14.5,15.8,38,0.00,,OVC049,0.00,VWS V14.00,2013-05-12 18:42:00,
2013-05-12 14:47:00,54.4,28.7,29.97,WSW,253,9.1,12.1,37,0.00,,OVC049,0.00,VWS V14.00,2013-05-12 18:47:00,
2013-05-12 14:52:00,53.7,28.0,29.97,West,259,14.5,18.5,37,0.00,,OVC049,0.00,VWS V14.00,2013-05-12 18:52:00,
2013-05-12 14:57:00,53.3,27.7,29.97,WSW,257,20.2,22.0,37,0.00,,OVC049,0.00,VWS V14.00,2013-05-12 18:57:00,
2013-05-12 15:02:00,52.5,27.0,29.97,NW,310,9.6,10.5,37,0.00,,OVC055,0.00,VWS V14.00,2013-05-12 19:02:00,
2013-05-12 15:07:00,52.5,27.7,29.97,West,268,9.6,11.5,38,0.00,,OVC055,0.00,VWS V14.00,2013-05-12 19:07:00,
2013-05-12 15:12:00,53.1,28.8,29.97,WNW,284,13.5,14.8,39,0.00,,OVC055,0.00,VWS V14.00,2013-05-12 19:12:00,
2013-05-12 15:17:00,53.7,29.3,29.97,West,264,10.1,15.8,39,0.00,,OVC055,0.00,VWS V14.00,2013-05-12 19:17:00,
2013-05-12 15:23:00,55.5,31.0,29.97,West,274,13.5,14.8,39,0.00,,OVC055,0.00,VWS V14.00,2013-05-12 19:23:00,
2013-05-12 15:28:00,53.5,28.5,29.97,NNW,340,9.1,12.6,38,0.00,,OVC055,0.00,VWS V14.00,2013-05-12 19:28:00,
2013-05-12 15:33:00,52.9,29.3,29.97,West,281,11.6,16.4,40,0.00,,OVC055,0.00,VWS V14.00,2013-05-12 19:33:00,
2013-05-12 15:38:00,53.5,29.1,29.97,NW,312,15.5,20.1,39,0.00,,OVC055,0.00,VWS V14.00,2013-05-12 19:38:00,
2013-05-12 15:43:00,55.5,30.3,29.97,WSW,254,11.6,18.5,38,0.00,,OVC055,0.00,VWS V14.00,2013-05-12 19:43:00,
2013-05-12 15:48:00,56.1,30.8,29.97,WNW,284,11.6,23.6,38,0.00,,OVC055,0.00,VWS V14.00,2013-05-12 19:48:00,
2013-05-12 15:53:00,55.1,29.4,29.97,South,172,11.6,12.6,37,0.00,,OVC055,0.00,VWS V14.00,2013-05-12 19:53:00,
2013-05-12 15:58:00,53.5,27.9,29.97,WSW,241,12.1,15.8,37,0.00,,OVC055,0.00,VWS V14.00,2013-05-12 19:58:00,
2013-05-12 16:03:00,53.3,27.7,29.97,West,261,13.0,14.2,37,0.00,,OVC055,0.00,VWS V14.00,2013-05-12 20:03:00,
2013-05-12 16:09:00,52.9,28.0,29.97,West,264,13.5,14.8,38,0.00,,OVC055,0.00,VWS V14.00,2013-05-12 20:09:00,
2013-05-12 16:14:00,52.7,27.2,29.97,WSW,255,8.4,12.1,37,0.00,,OVC055,0.00,VWS V14.00,2013-05-12 20:14:00,
2013-05-12 16:19:00,52.9,27.4,29.97,WSW,257,11.1,15.8,37,0.00,,OVC055,0.00,VWS V14.00,2013-05-12 20:19:00,
2013-05-12 16:24:00,53.3,29.0,29.97,WSW,250,13.5,15.8,39,0.00,,OVC055,0.00,VWS V14.00,2013-05-12 20:24:00,
2013-05-12 16:29:00,53.1,28.2,29.97,West,261,10.6,11.5,38,0.00,,OVC055,0.00,VWS V14.00,2013-05-12 20:29:00,
2013-05-12 16:34:00,52.2,27.4,29.97,West,265,9.1,18.5,38,0.00,,OVC055,0.00,VWS V14.00,2013-05-12 20:34:00,
2013-05-12 16:39:00,52.2,28.0,29.97,West,271,11.6,15.8,39,0.00,,OVC055,0.00,VWS V14.00,2013-05-12 20:39:00,
2013-05-12 16:44:00,53.7,29.3,29.97,WNW,285,11.6,15.8,39,0.00,,OVC055,0.00,VWS V14.00,2013-05-12 20:44:00,
2013-05-12 16:49:00,53.5,29.1,29.97,West,281,14.0,20.4,39,0.00,,OVC055,0.00,VWS V14.00,2013-05-12 20:49:00,
2013-05-12 16:55:00,52.5,27.7,29.97,WNW,283,8.4,12.1,38,0.00,,OVC055,0.00,VWS V14.00,2013-05-12 20:55:00,
2013-05-12 17:00:00,53.5,29.8,29.97,WNW,291,13.5,14.8,40,0.00,,OVC055,0.00,VWS V14.00,2013-05-12 21:00:00,
2013-05-12 17:05:00,54.4,30.0,29.97,WNW,293,8.4,10.5,39,0.00,,BKN060,0.00,VWS V14.00,2013-05-12 21:05:00,
2013-05-12 17:10:00,53.8,28.8,29.97,NW,304,8.4,9.1,38,0.00,,BKN060,0.00,VWS V14.00,2013-05-12 21:10:00,
2013-05-12 17:15:00,54.0,29.0,29.97,WSW,240,9.6,16.9,38,0.00,,BKN060,0.00,VWS V14.00,2013-05-12 21:15:00,
2013-05-12 17:20:00,53.8,28.8,29.97,WSW,257,11.6,12.6,38,0.00,,BKN060,0.00,VWS V14.00,2013-05-12 21:20:00,
2013-05-12 17:25:00,52.7,27.9,29.97,WNW,298,8.4,12.1,38,0.00,,BKN060,0.00,VWS V14.00,2013-05-12 21:25:00,
2013-05-12 17:30:00,52.3,27.5,29.97,WNW,289,6.9,9.7,38,0.00,,BKN060,0.00,VWS V14.00,2013-05-12 21:30:00,
2013-05-12 17:35:00,51.8,27.6,29.97,West,260,5.9,12.1,39,0.00,,BKN060,0.00,VWS V14.00,2013-05-12 21:35:00,
2013-05-12 17:40:00,51.2,27.1,29.97,NW,310,11.1,13.2,39,0.00,,BKN060,0.00,VWS V14.00,2013-05-12 21:40:00,
2013-05-12 17:45:00,51.6,28.1,29.97,NW,310,9.6,11.5,40,0.00,,BKN060,0.00,VWS V14.00,2013-05-12 21:45:00,
2013-05-12 17:51:00,51.4,27.9,30.00,NW,309,6.9,9.1,40,0.00,,BKN060,0.00,VWS V14.00,2013-05-12 21:51:00,
2013-05-12 17:56:00,51.4,27.9,30.00,WNW,294,9.1,11.0,40,0.00,,BKN060,0.00,VWS V14.00,2013-05-12 21:56:00,
2013-05-12 18:01:00,51.1,27.6,30.00,NW,314,17.5,20.4,40,0.00,,BKN060,0.00,VWS V14.00,2013-05-12 22:01:00,
2013-05-12 18:06:00,52.0,27.8,30.00,NW,306,17.0,24.2,39,0.00,,BKN060,0.00,VWS V14.00,2013-05-12 22:06:00,
2013-05-12 18:11:00,52.3,28.8,30.00,WSW,251,4.9,8.1,40,0.00,,BKN060,0.00,VWS V14.00,2013-05-12 22:11:00,
2013-05-12 18:16:00,51.6,27.5,29.97,WNW,283,5.9,9.1,39,0.00,,BKN060,0.00,VWS V14.00,2013-05-12 22:16:00,
2013-05-12 18:21:00,51.1,27.0,29.97,West,273,6.4,9.7,39,0.00,,BKN060,0.00,VWS V14.00,2013-05-12 22:21:00,
2013-05-12 18:26:00,51.1,27.0,29.97,WNW,302,11.1,14.2,39,0.00,,BKN060,0.00,VWS V14.00,2013-05-12 22:26:00,
2013-05-12 18:31:00,51.1,27.0,30.00,WNW,299,14.0,15.3,39,0.00,,BKN060,0.00,VWS V14.00,2013-05-12 22:31:00,
2013-05-12 18:36:00,50.3,26.3,30.00,NNW,328,8.9,12.6,39,0.00,,BKN060,0.00,VWS V14.00,2013-05-12 22:36:00,
2013-05-12 18:41:00,50.3,26.9,30.00,WNW,298,11.6,13.2,40,0.00,,BKN060,0.00,VWS V14.00,2013-05-12 22:41:00,
2013-05-12 18:47:00,50.1,26.8,30.00,WNW,284,10.6,11.5,40,0.00,,BKN060,0.00,VWS V14.00,2013-05-12 22:47:00,
2013-05-12 18:52:00,49.9,26.6,30.00,WNW,286,8.4,9.1,40,0.00,,BKN060,0.00,VWS V14.00,2013-05-12 22:52:00,
2013-05-12 18:57:00,50.5,27.1,30.00,West,275,6.9,10.5,40,0.00,,BKN060,0.00,VWS V14.00,2013-05-12 22:57:00,
2013-05-12 19:02:00,50.9,26.8,30.00,WSW,255,11.1,15.3,39,0.00,,BKN065,0.00,VWS V14.00,2013-05-12 23:02:00,
2013-05-12 19:07:00,49.9,26.6,30.00,WSW,258,8.9,9.7,40,0.00,,BKN065,0.00,VWS V14.00,2013-05-12 23:07:00,
2013-05-12 19:12:00,49.9,26.6,30.00,WSW,256,5.9,7.5,40,0.00,,BKN065,0.00,VWS V14.00,2013-05-12 23:12:00,
2013-05-12 19:17:00,49.4,26.1,30.00,WSW,249,9.1,9.9,40,0.00,,BKN065,0.00,VWS V14.00,2013-05-12 23:17:00,
2013-05-12 19:22:00,49.0,25.8,30.00,WNW,283,6.9,9.9,40,0.00,,BKN065,0.00,VWS V14.00,2013-05-12 23:22:00,
2013-05-12 19:27:00,48.8,26.2,30.00,West,279,13.0,17.4,41,0.00,,BKN065,0.00,VWS V14.00,2013-05-12 23:27:00,
2013-05-12 19:33:00,48.7,25.4,30.00,NW,310,6.9,9.7,40,0.00,,BKN065,0.00,VWS V14.00,2013-05-12 23:33:00,
2013-05-12 19:38:00,48.3,26.3,30.00,NW,316,5.9,7.5,42,0.00,,BKN065,0.00,VWS V14.00,2013-05-12 23:38:00,
2013-05-12 19:43:00,47.9,27.1,30.00,WNW,286,4.9,5.4,44,0.00,,BKN065,0.00,VWS V14.00,2013-05-12 23:43:00,
2013-05-12 19:48:00,47.7,26.9,30.00,NW,309,7.4,10.5,44,0.00,,BKN065,0.00,VWS V14.00,2013-05-12 23:48:00,
2013-05-12 19:53:00,47.9,27.1,30.00,NNW,330,9.6,12.1,44,0.00,,BKN065,0.00,VWS V14.00,2013-05-12 23:53:00,
2013-05-12 19:58:00,47.3,27.1,30.00,NNW,331,5.4,7.5,45,0.00,,BKN065,0.00,VWS V14.00,2013-05-12 23:58:00,
2013-05-12 20:03:00,47.3,26.5,30.00,NNW,327,3.0,3.2,44,0.00,,BKN060,0.00,VWS V14.00,2013-05-13 00:03:00,
2013-05-12 20:08:00,47.3,27.1,30.00,NNW,327,0.0,0.0,45,0.00,,BKN060,0.00,VWS V14.00,2013-05-13 00:08:00,
2013-05-12 20:13:00,47.5,27.3,30.00,WSW,257,3.9,4.3,45,0.00,,BKN060,0.00,VWS V14.00,2013-05-13 00:13:00,
2013-05-12 20:18:00,47.2,26.9,30.00,WNW,297,6.9,7.5,45,0.00,,BKN060,0.00,VWS V14.00,2013-05-13 00:18:00,
2013-05-12 20:23:00,47.0,26.2,30.00,WNW,295,3.4,7.5,44,0.00,,BKN060,0.00,VWS V14.00,2013-05-13 00:23:00,
2013-05-12 20:28:00,46.8,26.0,30.00,West,276,3.9,4.3,44,0.00,,BKN060,0.00,VWS V14.00,2013-05-13 00:28:00,
2013-05-12 20:33:00,46.8,25.5,30.00,WNW,287,6.4,7.5,43,0.00,,BKN060,0.00,VWS V14.00,2013-05-13 00:33:00,
2013-05-12 20:38:00,46.8,26.0,30.00,NW,308,6.4,9.7,44,0.00,,BKN060,0.00,VWS V14.00,2013-05-13 00:38:00,
2013-05-12 20:43:00,46.4,25.7,30.00,NW,316,6.4,7.5,44,0.00,,BKN060,0.00,VWS V14.00,2013-05-13 00:43:00,
2013-05-12 20:48:00,46.2,25.5,30.03,WNW,282,3.9,9.7,44,0.00,,BKN060,0.00,VWS V14.00,2013-05-13 00:48:00,
2013-05-12 20:53:00,45.9,25.7,30.03,WSW,258,3.0,3.2,45,0.00,,BKN060,0.00,VWS V14.00,2013-05-13 00:53:00,
2013-05-12 20:58:00,45.9,26.3,30.03,WNW,297,3.9,6.4,46,0.00,,BKN060,0.00,VWS V14.00,2013-05-13 00:58:00,
2013-05-12 21:03:00,45.7,25.6,30.03,NW,314,3.0,4.3,45,0.00,,FEW060,0.00,VWS V14.00,2013-05-13 01:03:00,
2013-05-12 21:08:00,45.3,25.8,30.03,WNW,296,3.0,4.3,46,0.00,,FEW060,0.00,VWS V14.00,2013-05-13 01:08:00,
2013-05-12 21:13:00,45.7,26.1,30.03,WSW,242,0.0,2.7,46,0.00,,FEW060,0.00,VWS V14.00,2013-05-13 01:13:00,
2013-05-12 21:19:00,45.7,26.1,30.03,SW,217,3.4,7.5,46,0.00,,FEW060,0.00,VWS V14.00,2013-05-13 01:19:00,
2013-05-12 21:24:00,45.7,25.6,30.03,West,270,5.4,7.0,45,0.00,,FEW060,0.00,VWS V14.00,2013-05-13 01:24:00,
2013-05-12 21:29:00,45.1,25.6,30.03,WNW,288,3.4,3.8,46,0.00,,FEW060,0.00,VWS V14.00,2013-05-13 01:29:00,
2013-05-12 21:34:00,44.8,26.3,30.03,West,277,0.0,0.0,48,0.00,,FEW060,0.00,VWS V14.00,2013-05-13 01:34:00,
2013-05-12 21:39:00,45.1,25.6,30.03,SW,223,3.9,4.3,46,0.00,,FEW060,0.00,VWS V14.00,2013-05-13 01:39:00,
2013-05-12 21:44:00,45.3,25.8,30.03,SSW,211,2.5,2.7,46,0.00,,FEW060,0.00,VWS V14.00,2013-05-13 01:44:00,
2013-05-12 21:49:00,45.3,25.8,30.03,West,264,0.0,0.0,46,0.00,,FEW060,0.00,VWS V14.00,2013-05-13 01:49:00,
2013-05-12 21:54:00,44.8,25.8,30.03,NW,321,0.0,0.0,47,0.00,,FEW060,0.00,VWS V14.00,2013-05-13 01:54:00,
2013-05-12 22:00:00,44.9,25.9,30.03,SSW,200,0.0,3.2,47,0.00,,FEW060,0.00,VWS V14.00,2013-05-13 02:00:00,
2013-05-12 22:05:00,44.9,25.4,30.03,NW,324,2.5,2.7,46,0.00,,FEW060,0.00,VWS V14.00,2013-05-13 02:05:00,
2013-05-12 22:10:00,44.4,25.9,30.03,North,6,0.0,0.0,48,0.00,,FEW060,0.00,VWS V14.00,2013-05-13 02:10:00,
2013-05-12 22:15:00,44.0,26.1,30.03,NNW,332,0.0,3.2,49,0.00,,FEW060,0.00,VWS V14.00,2013-05-13 02:15:00,
2013-05-12 22:20:00,43.8,25.9,30.06,NW,316,2.5,3.2,49,0.00,,FEW060,0.00,VWS V14.00,2013-05-13 02:20:00,
2013-05-12 22:25:00,43.6,26.2,30.06,NW,316,0.0,0.0,50,0.00,,FEW060,0.00,VWS V14.00,2013-05-13 02:25:00,
2013-05-12 22:30:00,43.6,26.2,30.06,NW,316,0.0,0.0,50,0.00,,FEW060,0.00,VWS V14.00,2013-05-13 02:30:00,
2013-05-12 22:35:00,43.6,26.2,30.06,NW,316,0.0,0.0,50,0.00,,FEW060,0.00,VWS V14.00,2013-05-13 02:35:00,
2013-05-12 22:40:00,43.3,26.4,30.06,NW,316,3.0,3.2,51,0.00,,FEW060,0.00,VWS V14.00,2013-05-13 02:40:00,
2013-05-12 22:45:00,43.1,26.2,30.06,NW,316,2.5,3.2,51,0.00,,FEW060,0.00,VWS V14.00,2013-05-13 02:45:00,
2013-05-12 22:50:00,42.9,26.5,30.06,SSE,164,0.0,0.0,52,0.00,,FEW060,0.00,VWS V14.00,2013-05-13 02:50:00,
2013-05-12 22:55:00,41.8,26.4,30.06,NNW,342,0.0,2.7,54,0.00,,FEW060,0.00,VWS V14.00,2013-05-13 02:55:00,
2013-05-12 23:01:00,41.8,26.8,30.06,NNW,339,0.0,3.8,55,0.00,,FEW060,0.00,VWS V14.00,2013-05-13 03:01:00,
2013-05-12 23:06:00,42.0,26.5,30.06,East,87,0.0,3.2,54,0.00,,OVC060,0.00,VWS V14.00,2013-05-13 03:06:00,
2013-05-12 23:11:00,42.0,27.0,30.06,East,87,0.0,0.0,55,0.00,,OVC060,0.00,VWS V14.00,2013-05-13 03:11:00,
2013-05-12 23:16:00,42.0,27.0,30.06,East,87,0.0,0.0,55,0.00,,OVC060,0.00,VWS V14.00,2013-05-13 03:16:00,
2013-05-12 23:21:00,42.0,27.4,30.03,ESE,121,3.4,3.8,56,0.00,,OVC060,0.00,VWS V14.00,2013-05-13 03:21:00,
2013-05-12 23:26:00,42.0,27.4,30.03,ESE,112,0.0,3.2,56,0.00,,OVC060,0.00,VWS V14.00,2013-05-13 03:26:00,
2013-05-12 23:31:00,41.8,27.7,30.03,ESE,112,2.5,2.7,57,0.00,,OVC060,0.00,VWS V14.00,2013-05-13 03:31:00,
2013-05-12 23:36:00,41.6,27.5,30.06,East,94,3.4,3.8,57,0.00,,OVC060,0.00,VWS V14.00,2013-05-13 03:36:00,
2013-05-12 23:41:00,40.7,27.9,30.06,NNW,346,0.0,0.0,60,0.00,,OVC060,0.00,VWS V14.00,2013-05-13 03:41:00,
2013-05-12 23:46:00,40.9,28.1,30.06,NE,42,0.0,0.0,60,0.00,,OVC060,0.00,VWS V14.00,2013-05-13 03:46:00,
2013-05-12 23:51:00,40.9,28.5,30.06,East,82,3.0,3.2,61,0.00,,OVC060,0.00,VWS V14.00,2013-05-13 03:51:00,
2013-05-12 23:57:00,40.1,28.2,30.06,WSW,255,0.0,0.0,62,0.00,,OVC060,0.00,VWS V14.00,2013-05-13 03:57:00,